Regional Weather Roundup
Issued by NWS State College, PA

Home | Current Version | Previous Version | Text Only | Print | Product List | Glossary On
Versions: 1 2 3 4 5 6 7 8 9 10 11 12 13 14 15 16 17 18 19 20 21 22 23 24 25 26 27 28 29 30 31 32 33 34 35 36 37 38 39 40 41 42 43 44 45 46 47 48 49 50
000
ASUS41 KCTP 220910
RWRCTP

REGIONAL WEATHER ROUNDUP
NATIONAL WEATHER SERVICE STATE COLLEGE PA
500 AM EDT TUE JUL 22 2014

Note: "fair" indicates few or no clouds below 12,000 feet with no
significant weather and/or obstructions to visibility.

* = STATION THAT DOES NOT REPORT PRECIPITATION /E.G. RAIN...SNOW...ETC/
    THUNDER OR FOG.

PAZ002>004-007>009-013>016-020>023-029>032-221000-
WESTERN PENNSYLVANIA

CITY           SKY/WX    TMP DP  RH WIND       PRES   REMARKS
ERIE           CLEAR     67  61  81 CALM      30.12S
MEADVILLE      PTCLDY    68  64  87 E3        30.15R
FRANKLIN*      CLOUDY    63  61  94 NE3       30.17S
NEW CASTLE       N/A     64  64 100 CALM      30.14S FOG
BEAVER COUNTY  NOT AVBL
BUTLER*        CLEAR     66  64  94 CALM      30.16S
PITTSBURGH INT CLEAR     70  67  90 CALM      30.14R
PITTSBURGH     CLEAR     70  66  87 S6        30.13S
INDIANA*       CLOUDY    66  66 100 CALM      30.20R FOG
LATROBE        CLEAR     66  66 100 CALM      30.15S FOG
WASHINGTON CO* MOCLDY    63  61  94 CALM      30.14S VSB 1/2
$$

PAZ004>006-010>012-017>019-024>028-033>037-041-042-045-046-049>053-221000-
CENTRAL PENNSYLVANIA

CITY           SKY/WX    TMP DP  RH WIND       PRES   REMARKS
BRADFORD       FOG       61  60  97 CALM      30.20R VSB 1/4
DUBOIS         FOG       66  64  93 E3        30.18R VSB 1/4
CLEARFIELD     FOG       62  62 100 N5        30.18S VSB 1/4
JOHNSTOWN      CLEAR     66  64  93 S6        30.20S
ALTOONA        PTCLDY    65  64  97 CALM      30.19R FOG
STATE COLLEGE  CLOUDY    68  66  93 CALM      30.18S
WILLIAMSPORT   CLOUDY    67  63  87 CALM      30.15S
SELINSGROVE    CLOUDY    67  66  97 CALM      30.17S FOG
FT INDIANTOWN  CLEAR     64  64 100 NE1       30.18R FOG
CAPITAL CITY   CLOUDY    70  66  87 CALM      30.17R
HARRISBURG     MOCLDY    73  66  78 CALM      30.16S
YORK           CLOUDY    66  64  93 CALM      30.17S
$$

PAZ038>040-043-044-047-048-054-055-060>062-067>071-221000-
EASTERN PENNSYLVANIA

CITY           SKY/WX    TMP DP  RH WIND       PRES   REMARKS
SCRANTON       PTCLDY    66  62  87 E5        30.18S
MOUNT POCONO   PTCLDY    61  59  93 W3        30.22S FOG
ALLENTOWN      CLEAR     65  62  90 N3        30.18R
QUAKERTOWN*    MOSUNNY   63  63 100 CALM      30.19S
READING        PTCLDY    69  65  86 CALM      30.17R FOG
LANCASTER      CLOUDY    69  66  90 E3        30.17S
COATESVILLE    SUNNY     64  64 100 CALM      30.19S
POTTSTOWN      CLEAR     64  61  90 CALM      30.19S
BLUE BELL      CLEAR     63  61  94 CALM      30.18R
DOYLESTOWN     CLEAR     64  61  90 CALM      30.18R
WILLOW GROVE   NOT AVBL
NORTH PHILA    CLEAR     67  59  75 CALM      30.19R
PHILADELPHIA   CLEAR     70  62  76 S3        30.18R
$$



USA.gov is the U.S. government's official web portal to all federal, state and local government web resources and services.